Wind_Speed
27 28 29 29 30 30 31 30 30 27 27 27 29 30 30 30 31 31 32 33 34 35 37 39 40 42 43 45 46 47 48 49 50 52 53 54 55 56 56 57 58 59 59 60
27 27 28 30 29 29 30 30 30 30 28 28 31 31 31 32 33 34 35 36 37 39 40 41 42 43 45 46 47 48 49 50 51 52 54 55 56 57 57 58 58 59 60 62
28 28 30 31 28 29 30 30 31 31 28 29 31 31 32 34 35 37 38 39 40 41 42 44 44 45 46 47 48 49 50 51 52 53 54 55 56 57 58 58 59 60 62 64
29 30 33 28 27 29 30 29 29 29 29 30 31 33 34 36 37 39 40 41 42 43 44 44 45 46 46 47 48 49 51 52 53 54 55 56 57 57 58 59 61 62 64 66
32 33 32 29 28 28 29 30 29 29 30 31 33 35 35 37 38 40 41 42 43 44 44 45 45 46 47 48 49 51 52 52 53 54 55 56 57 58 59 60 62 64 67 69
33 33 33 28 28 29 31 30 28 30 32 34 35 36 36 38 39 41 42 43 44 44 45 45 46 47 48 49 50 51 51 52 53 54 55 56 57 59 61 63 65 67 69 72
32 33 32 27 28 29 31 28 29 32 33 35 36 36 37 39 40 42 43 44 44 44 44 45 46 47 48 49 50 50 50 51 53 54 56 57 59 61 63 66 68 70 72 75
32 33 29 27 29 30 30 30 32 33 34 35 36 37 38 40 41 42 42 42 43 43 44 45 46 47 48 49 49 50 51 52 54 56 57 59 61 64 66 69 71 74 76 78
32 31 30 30 31 31 32 33 33 34 35 36 37 38 39 39 40 40 41 42 43 44 44 45 46 47 48 48 49 50 52 53 55 57 59 62 64 67 69 72 76 78 81 82
32 31 31 31 32 33 33 34 35 36 37 37 38 38 38 39 40 40 41 42 43 44 45 45 46 47 48 50 51 52 53 55 57 59 62 64 67 70 74 77 80 82 84 85
31 31 31 32 33 34 35 36 37 37 38 38 38 38 39 39 40 41 42 43 44 44 45 46 46 48 49 50 51 53 55 57 60 62 65 68 71 74 78 81 84 85 86 87
31 31 33 33 34 35 36 37 37 38 38 38 39 39 39 40 41 42 43 43 44 44 45 46 47 48 50 51 53 55 58 60 63 66 69 72 75 78 80 83 84 86 86 86
32 32 33 34 35 36 37 37 37 37 38 38 39 39 40 41 41 42 43 43 44 44 45 46 48 50 52 54 56 59 62 65 67 70 74 77 80 83 83 82 83 83 83 81
32 32 33 34 35 36 36 36 36 37 37 38 38 39 40 41 42 42 42 43 43 44 46 48 49 52 54 57 60 63 66 69 72 75 78 82 84 85 85 84 82 79 77 75
32 33 34 34 34 35 35 36 36 36 37 37 38 39 40 40 41 42 42 43 44 45 47 50 52 55 57 60 63 66 69 73 76 79 83 85 85 85 84 83 80 76 72 67
32 33 33 34 34 34 35 35 35 36 37 38 38 39 40 41 41 42 43 44 45 47 50 53 55 58 61 64 67 70 73 77 81 84 85 85 85 83 81 78 74 70 65 62
32 32 32 33 33 33 34 34 35 36 37 38 39 39 40 41 41 42 44 46 48 51 54 56 59 61 65 68 72 75 78 82 85 86 86 85 82 79 75 72 68 63 59 56
31 32 32 32 33 33 34 34 35 36 37 37 38 39 40 41 42 44 46 49 51 54 57 60 62 65 69 73 76 79 83 85 86 85 84 81 77 73 69 65 61 58 54 51
30 31 31 32 32 32 33 34 35 35 36 37 38 40 41 43 45 47 49 52 54 57 60 63 67 70 73 77 81 83 85 85 84 82 79 75 71 67 63 59 56 53 50 46
30 30 31 32 32 33 34 34 35 36 38 39 40 42 44 45 48 50 52 55 58 61 64 68 71 74 78 81 84 85 85 83 81 77 73 69 64 60 57 54 52 49 45 41
30 31 31 32 33 34 35 36 37 38 39 41 43 44 46 48 50 53 55 58 62 65 69 72 75 79 82 83 84 84 82 79 76 71 67 62 58 55 52 50 47 44 40 37
32 32 33 34 35 36 37 38 39 40 42 43 45 46 48 50 53 56 59 63 66 69 72 76 79 82 84 84 83 80 77 73 68 64 60 56 54 52 49 46 42 39 36 33
34 34 35 36 36 37 38 39 40 42 43 45 47 49 51 54 57 60 63 66 70 73 76 79 82 83 84 81 78 74 69 65 62 59 56 53 51 49 45 41 38 34 32 30
35 35 36 36 37 38 39 40 42 43 45 47 50 52 55 58 61 64 68 70 74 77 80 82 83 82 79 75 71 67 63 61 58 56 53 50 47 44 41 37 33 31 29 27
35 36 36 37 38 39 40 42 44 45 48 50 53 56 59 62 65 68 71 74 77 80 81 81 79 75 71 68 65 62 59 57 54 51 48 45 42 39 36 33 30 28 26 24
35 36 37 38 39 40 42 44 46 48 50 53 56 60 63 66 69 72 75 78 80 81 79 76 72 68 65 63 60 57 54 51 48 46 43 40 37 34 32 29 26 24 23 22
36 37 38 39 41 43 45 47 49 52 54 57 60 63 67 70 73 76 78 79 79 76 73 69 65 62 60 57 54 51 50 47 45 41 38 35 33 30 28 25 23 21 20 20
Wind_Direction
246 246 245 245 245 246 249 252 255 256 257 258 262 265 268 271 273 276 278 280 282 284 286 287 288 290 291 292 292 293 293 294 294 295 295 295 295 295 296 296 296 297 297 298
245 246 245 245 244 245 248 252 255 256 257 259 262 266 270 273 275 277 280 282 284 286 288 289 291 292 293 293 294 294 294 295 295 295 295 295 295 296 296 297 298 298 299 299
245 247 250 249 248 247 249 252 255 258 259 260 264 268 271 274 277 279 282 284 286 287 289 291 292 294 294 294 295 295 295 295 295 295 295 296 296 297 297 298 299 299 300 301
246 249 252 257 252 252 254 255 257 260 261 263 266 269 272 275 278 280 283 285 287 289 290 292 293 294 294 294 295 295 296 296 296 296 296 297 297 298 298 299 300 301 302 303
249 252 256 256 257 259 258 256 257 261 264 265 268 271 275 277 279 281 284 286 288 290 291 292 293 294 295 295 296 296 297 297 297 297 297 298 299 299 300 301 302 303 303 304
253 255 258 258 257 259 259 259 260 263 265 267 270 274 277 279 281 283 285 287 289 291 292 293 294 295 296 296 297 297 298 298 298 299 299 299 300 301 302 302 303 304 305 305
255 257 259 260 260 259 261 264 262 264 267 270 273 276 278 280 282 284 286 288 289 291 292 294 294 295 296 297 298 298 299 299 300 300 300 301 302 303 303 304 304 305 305 306
255 258 262 263 263 263 265 265 266 268 270 273 275 277 279 281 284 286 287 289 290 292 294 295 296 297 298 298 299 299 300 300 301 301 302 303 303 304 305 305 305 306 306 307
254 258 262 263 265 266 267 268 269 272 274 276 278 280 282 284 286 288 289 291 293 294 296 297 298 298 299 299 300 300 301 301 302 303 304 304 305 305 306 306 306 307 307 307
254 258 262 263 265 267 268 270 272 275 277 279 282 284 285 286 288 290 291 293 295 297 297 298 299 299 300 300 301 302 302 303 304 304 305 305 306 306 307 307 307 308 308 308
256 259 261 263 265 267 269 271 274 276 279 282 285 286 288 289 291 292 294 295 296 297 298 299 300 300 301 302 303 303 304 304 305 305 306 306 307 307 308 308 308 308 308 309
258 259 261 262 264 267 269 272 275 279 281 284 287 288 289 291 292 293 295 296 297 299 299 300 301 302 303 304 304 305 305 305 306 306 307 307 307 308 308 309 309 309 310 310
257 259 261 263 266 268 271 275 278 281 284 286 288 289 290 291 293 294 296 297 299 300 301 301 302 303 304 305 305 306 306 306 307 307 308 308 308 308 309 309 309 310 310 310
259 261 263 265 267 270 273 277 280 282 285 287 288 289 291 292 294 296 297 299 300 301 302 303 304 304 305 306 306 307 307 308 308 309 309 309 309 309 309 309 310 310 309 309
259 262 265 268 270 273 275 278 280 283 285 287 289 291 292 294 296 297 298 300 301 302 303 304 304 305 306 306 307 307 308 308 309 309 310 310 310 310 310 310 310 310 310 309
260 264 267 271 273 276 277 280 282 284 287 288 290 292 293 295 296 298 299 301 302 303 304 304 305 306 306 306 307 308 309 309 310 310 310 310 310 310 310 310 310 310 310 310
263 266 269 272 274 277 279 281 283 285 287 289 291 293 294 296 297 299 301 302 303 304 304 305 306 306 307 307 308 309 309 310 310 310 310 310 310 310 310 310 310 310 311 310
265 267 270 273 276 278 281 283 285 287 289 290 292 294 296 297 299 301 302 303 304 305 305 306 307 307 308 308 309 310 310 310 310 310 310 310 310 310 310 310 310 310 310 310
266 269 271 274 276 279 282 284 286 288 290 292 294 295 297 298 300 301 302 303 304 305 306 307 307 308 308 309 309 310 310 311 311 311 311 310 310 310 310 309 309 309 309 308
268 270 272 274 277 280 283 286 287 289 291 293 295 296 298 299 300 302 303 304 305 306 307 307 307 308 309 309 310 310 311 311 311 311 311 310 310 310 310 309 309 308 308 307
271 273 275 277 280 282 285 287 289 290 292 294 295 297 299 300 302 303 304 305 306 307 307 308 308 309 309 310 310 310 310 310 311 311 311 311 310 310 310 309 308 308 307 306
274 276 278 280 282 284 286 288 290 291 293 295 296 298 300 302 303 304 305 306 307 307 308 309 309 310 310 310 310 310 311 311 311 310 310 310 310 311 310 309 308 307 306 305
276 278 280 282 284 286 287 288 290 292 294 296 298 300 301 302 304 305 306 307 307 308 309 309 310 310 311 311 311 311 311 311 311 311 310 310 310 310 310 309 307 306 305 305
277 279 281 283 284 286 288 290 292 294 296 298 299 301 302 304 305 306 307 308 308 309 310 310 311 311 311 311 311 311 311 310 310 310 310 310 310 310 309 308 306 305 305 304
278 279 281 283 285 287 289 291 293 296 297 299 301 302 304 305 306 307 308 308 309 310 311 311 311 311 311 311 311 311 311 311 310 310 310 310 310 309 308 306 304 304 304 303
277 279 281 283 286 288 291 293 295 297 298 300 302 303 305 306 307 307 308 309 310 311 311 311 311 311 311 311 311 311 311 311 311 311 310 310 310 309 308 306 304 304 303 302
277 280 282 285 287 290 292 294 296 298 300 301 303 304 305 306 307 308 309 310 310 310 310 311 310 311 311 311 311 311 312 312 311 311 309 309 309 309 307 306 304 304 304 304
Height
5722 5724 5726 5728 5730 5731 5732 5734 5735 5737 5737 5738 5736 5736 5736 5736 5736 5735 5733 5732 5730 5728 5725 5722 5719 5715 5711 5707 5703 5698 5694 5689 5684 5679 5674 5669 5663 5658 5652 5646 5640 5634 5628 5622
5715 5717 5719 5720 5722 5724 5725 5726 5727 5728 5730 5730 5728 5728 5728 5728 5727 5726 5724 5722 5720 5718 5715 5712 5708 5704 5700 5696 5691 5687 5682 5677 5672 5667 5662 5656 5650 5645 5639 5633 5626 5620 5613 5606
5709 5711 5711 5713 5717 5717 5718 5720 5720 5720 5723 5721 5721 5720 5720 5719 5718 5716 5714 5713 5710 5707 5704 5701 5697 5693 5689 5685 5680 5675 5670 5665 5660 5655 5649 5643 5637 5631 5625 5619 5612 5606 5598 5591
5702 5704 5704 5711 5710 5710 5711 5712 5713 5713 5714 5714 5713 5712 5711 5710 5708 5707 5704 5702 5699 5697 5693 5690 5686 5682 5678 5673 5668 5664 5658 5653 5647 5642 5636 5630 5624 5617 5611 5605 5598 5591 5583 5575
5695 5696 5697 5701 5703 5703 5704 5704 5706 5706 5706 5705 5704 5703 5703 5701 5699 5697 5694 5692 5689 5686 5682 5679 5675 5670 5666 5661 5657 5651 5646 5640 5635 5629 5623 5617 5610 5604 5597 5590 5583 5575 5567 5558
5688 5688 5690 5696 5696 5695 5696 5696 5699 5697 5697 5696 5695 5695 5694 5691 5689 5687 5684 5681 5678 5675 5671 5667 5663 5659 5654 5649 5644 5639 5633 5628 5622 5615 5609 5603 5597 5590 5582 5575 5568 5559 5551 5541
5680 5680 5682 5688 5688 5688 5689 5691 5690 5689 5688 5687 5686 5686 5684 5682 5679 5676 5674 5671 5667 5664 5660 5656 5652 5647 5642 5637 5632 5626 5621 5615 5609 5602 5596 5589 5582 5575 5567 5560 5552 5543 5535 5525
5672 5673 5678 5680 5679 5680 5680 5680 5680 5679 5679 5678 5677 5676 5674 5671 5669 5666 5663 5660 5656 5652 5648 5644 5639 5635 5630 5625 5619 5614 5608 5602 5596 5589 5582 5575 5567 5560 5551 5542 5534 5525 5515 5506
5666 5669 5670 5670 5670 5670 5671 5671 5670 5670 5669 5669 5667 5665 5663 5661 5658 5655 5652 5648 5644 5641 5636 5632 5627 5622 5617 5612 5607 5601 5595 5589 5582 5575 5568 5560 5551 5543 5534 5524 5514 5505 5494 5485
5658 5660 5661 5661 5661 5661 5661 5661 5660 5660 5659 5658 5657 5655 5653 5650 5647 5644 5640 5637 5633 5629 5624 5620 5615 5610 5605 5599 5594 5588 5582 5575 5568 5561 5553 5545 5535 5526 5516 5505 5494 5483 5472 5461
5649 5652 5652 5652 5652 5652 5652 5651 5651 5650 5649 5648 5646 5644 5641 5639 5636 5632 5629 5625 5621 5617 5612 5607 5602 5597 5592 5587 5581 5575 5568 5561 5553 5545 5537 5529 5520 5509 5497 5486 5471 5459 5448 5437
5642 5643 5643 5644 5643 5643 5642 5642 5641 5640 5639 5637 5635 5633 5630 5627 5624 5621 5617 5613 5609 5605 5600 5595 5590 5585 5579 5573 5567 5561 5554 5546 5538 5530 5520 5511 5501 5493 5480 5466 5454 5439 5424 5412
5633 5633 5633 5633 5633 5633 5632 5632 5631 5630 5628 5626 5624 5622 5619 5616 5613 5609 5605 5601 5597 5593 5588 5583 5577 5572 5566 5560 5553 5546 5538 5530 5522 5512 5502 5492 5481 5470 5461 5452 5437 5421 5407 5393
5623 5623 5624 5624 5624 5623 5623 5622 5621 5620 5618 5616 5613 5611 5608 5605 5601 5598 5594 5590 5585 5580 5575 5570 5565 5559 5552 5546 5538 5530 5522 5513 5504 5494 5483 5472 5460 5448 5436 5425 5417 5408 5393 5377
5614 5614 5614 5614 5614 5614 5613 5612 5611 5609 5607 5605 5603 5600 5597 5594 5590 5586 5582 5578 5573 5568 5563 5558 5552 5545 5538 5531 5523 5514 5505 5495 5485 5475 5463 5451 5438 5426 5415 5403 5393 5384 5375 5364
5605 5605 5605 5605 5605 5604 5604 5602 5601 5599 5597 5595 5592 5589 5586 5583 5579 5575 5571 5566 5562 5556 5550 5544 5538 5531 5523 5515 5507 5498 5488 5477 5465 5454 5443 5430 5418 5406 5395 5384 5373 5364 5355 5346
5596 5597 5597 5596 5596 5595 5594 5593 5591 5589 5586 5584 5581 5578 5575 5572 5568 5564 5559 5554 5549 5543 5537 5531 5524 5516 5507 5498 5489 5480 5470 5459 5446 5433 5421 5409 5398 5386 5375 5365 5356 5348 5340 5331
5588 5588 5588 5587 5587 5586 5584 5583 5581 5579 5576 5574 5571 5568 5564 5560 5556 5552 5547 5542 5536 5530 5523 5515 5508 5500 5491 5481 5471 5461 5450 5438 5426 5414 5401 5390 5378 5368 5358 5349 5340 5333 5326 5319
5578 5578 5578 5578 5577 5576 5574 5573 5571 5568 5566 5563 5560 5557 5553 5549 5545 5540 5535 5529 5522 5516 5509 5500 5492 5483 5474 5463 5452 5441 5429 5417 5406 5394 5382 5371 5361 5352 5342 5334 5326 5319 5312 5306
5569 5569 5569 5568 5567 5566 5564 5563 5560 5558 5555 5552 5549 5545 5541 5537 5532 5527 5521 5515 5507 5501 5494 5485 5476 5466 5456 5445 5433 5421 5408 5396 5385 5374 5364 5354 5345 5336 5328 5320 5313 5306 5300 5295
5560 5560 5559 5559 5557 5556 5554 5552 5550 5547 5544 5541 5537 5533 5529 5524 5519 5513 5507 5501 5493 5484 5477 5467 5457 5447 5436 5425 5413 5400 5388 5377 5366 5356 5346 5338 5329 5322 5314 5307 5300 5294 5289 5284
5551 5550 5549 5548 5547 5545 5543 5541 5538 5536 5532 5529 5525 5520 5516 5511 5505 5499 5492 5485 5477 5468 5459 5449 5438 5427 5415 5404 5392 5381 5369 5358 5349 5339 5331 5323 5315 5308 5302 5295 5289 5284 5279 5275
5541 5540 5539 5538 5536 5534 5532 5529 5527 5523 5520 5516 5512 5507 5502 5497 5490 5484 5478 5469 5460 5451 5441 5430 5419 5407 5395 5383 5372 5362 5351 5342 5333 5324 5317 5309 5302 5295 5289 5284 5279 5274 5270 5266
5530 5529 5528 5527 5525 5523 5520 5518 5515 5511 5507 5503 5498 5493 5488 5482 5476 5467 5459 5451 5442 5432 5422 5410 5398 5386 5375 5364 5354 5344 5335 5326 5318 5310 5303 5296 5290 5284 5278 5274 5269 5266 5262 5259
5519 5518 5517 5515 5513 5511 5509 5505 5502 5498 5494 5489 5484 5478 5471 5465 5459 5451 5442 5433 5423 5412 5402 5390 5378 5367 5357 5347 5338 5329 5320 5312 5304 5297 5290 5284 5278 5273 5268 5264 5261 5257 5254 5251
5508 5507 5506 5504 5502 5499 5496 5493 5490 5485 5481 5476 5470 5463 5456 5448 5440 5432 5424 5414 5403 5392 5381 5371 5360 5350 5341 5332 5323 5314 5306 5299 5291 5285 5278 5273 5268 5264 5260 5256 5253 5250 5247 5245
5497 5495 5494 5492 5490 5487 5484 5480 5476 5472 5467 5461 5456 5448 5440 5432 5423 5414 5405 5395 5384 5373 5363 5353 5344 5334 5326 5317 5309 5301 5294 5287 5280 5274 5269 5264 5259 5255 5252 5249 5246 5244 5241 5239